EW5962 Weather Reports


time (UTC)temp
F
wind
direction
speed
knots
gust
knots
rain 1hr
in
rain 24hr
in
rain mn
in
humidity
%
barometer
mb
20260903202503 95 229 0.0 0.0 0.00 0.00 0.00 57 1013.5
20260903202105 95 206 0.0 0.0 0.00 0.00 0.00 52 1013.5
20260903201502 96 176 0.0 0.0 0.00 0.00 0.00 53 1013.7
20260903201008 97 140 0.0 0.9 0.00 0.00 0.00 52 1013.7
20260903200603 97 191 0.0 0.9 0.00 0.00 0.00 51 1013.7
20260903200004 97 243 0.0 1.7 0.00 0.00 0.00 50 1013.8
20260903195508 97 228 0.0 3.5 0.00 0.00 0.00 49 1013.9
20260903195103 97 191 0.0 3.5 0.00 0.00 0.00 49 1013.9
20260903194502 97 181 0.0 2.6 0.00 0.00 0.00 50 1014.1
20260903194008 97 162 0.0 0.0 0.00 0.00 0.00 50 1014.1
20260903193603 97 189 0.0 0.0 0.00 0.00 0.00 56 1014.1
20260903193002 97 191 0.0 0.0 0.00 0.00 0.00 49 1014.2
20260903192508 97 186 0.0 2.6 0.00 0.00 0.00 49 1014.2
20260903192102 97 186 0.0 2.6 0.00 0.00 0.00 47 1014.3
20260903191502 97 243 0.0 0.9 0.00 0.00 0.00 50 1014.2
20260903191009 97 156 0.0 0.9 0.00 0.00 0.00 46 1014.2
20260903190602 98 179 0.0 0.9 0.00 0.00 0.00 46 1014.3
20260903190002 99 182 0.0 1.7 0.00 0.00 0.00 47 1014.4
20260903185509 99 147 0.0 6.1 0.00 0.00 0.00 46 1014.4
20260903185102 99 200 0.0 6.1 0.00 0.00 0.00 44 1014.4
20260903184502 98 214 0.0 0.9 0.00 0.00 0.00 45 1014.5
20260903184010 98 234 0.0 0.0 0.00 0.00 0.00 51 1014.4
20260903183604 98 11 0.0 0.0 0.00 0.00 0.00 51 1014.5
20260903183003 97 184 0.0 2.6 0.00 0.00 0.00 48 1014.6
20260903182510 97 198 0.0 2.6 0.00 0.00 0.00 47 1014.7
20260903182102 97 241 0.0 1.7 0.00 0.00 0.00 48 1014.7
20260903181503 96 333 0.0 2.6 0.00 0.00 0.00 49 1014.8
20260903181011 96 8 0.0 3.5 0.00 0.00 0.00 50 1014.8
20260903180602 96 163 0.0 3.5 0.00 0.00 0.00 54 1014.9
20260903180007 95 112 0.0 0.0 0.00 0.00 0.00 57 1014.9
20260903175509 95 24 0.0 0.9 0.00 0.00 0.00 61 1014.9
20260903175103 94 16 0.0 0.9 0.00 0.00 0.00 58 1015.0
20260903174503 93 167 0.0 0.0 0.00 0.00 0.00 54 1015.0
20260903174009 94 152 0.0 0.0 0.00 0.00 0.00 54 1015.0
20260903173602 94 176 0.0 0.0 0.00 0.00 0.00 54 1015.1
20260903173002 95 176 0.0 0.0 0.00 0.00 0.00 54 1015.2
20260903172509 95 190 0.0 0.9 0.00 0.00 0.00 54 1015.2
20260903172102 96 192 0.0 0.9 0.00 0.00 0.00 55 1015.3
20260903171507 96 190 0.0 1.7 0.00 0.00 0.00 52 1015.3
20260903171010 96 215 0.0 4.3 0.00 0.00 0.00 53 1015.4
20260903170603 96 349 0.0 4.3 0.00 0.00 0.00 52 1015.4
20260903170003 96 213 0.0 0.0 0.00 0.00 0.00 52 1015.5
20260903165508 96 190 0.0 0.0 0.00 0.00 0.00 52 1015.6
20260903165102 96 193 0.0 0.0 0.00 0.00 0.00 52 1015.6
20260903164503 96 337 0.0 2.6 0.00 0.00 0.00 52 1015.7
20260903164008 96 347 0.0 2.6 0.00 0.00 0.00 52 1015.8
20260903163603 96 264 0.0 0.9 0.00 0.00 0.00 58 1015.8
20260903163006 95 261 0.0 0.9 0.00 0.00 0.00 56 1015.9
20260903162508 95 207 0.0 0.9 0.00 0.00 0.00 59 1016.0
20260903162103 95 221 0.0 0.9 0.00 0.00 0.00 57 1016.0
20260903161502 95 189 0.0 0.9 0.00 0.00 0.00 54 1016.0
20260903161009 95 316 0.0 0.0 0.00 0.00 0.00 54 1016.1
20260903160602 95 335 0.0 0.0 0.00 0.00 0.00 56 1016.1
20260903160001 94 352 0.0 0.0 0.00 0.00 0.00 58 1016.2
20260903155509 93 6 0.0 0.0 0.00 0.00 0.00 61 1016.2
20260903155102 92 185 0.0 0.0 0.00 0.00 0.00 59 1016.2
20260903154504 92 205 0.0 0.9 0.00 0.00 0.00 60 1016.2
20260903154015 92 318 0.0 0.9 0.00 0.00 0.00 61 1016.2
20260903153603 91 183 0.0 1.7 0.00 0.00 0.00 69 1016.2
20260903153003 91 1 0.0 0.0 0.00 0.00 0.00 69 1016.3
20260903152509 90 357 0.0 0.0 0.00 0.00 0.00 64 1016.4
20260903152102 89 5 0.0 0.0 0.00 0.00 0.00 71 1016.4
20260903151502 89 346 0.0 0.0 0.00 0.00 0.00 66 1016.4
20260903151008 88 25 0.0 0.0 0.00 0.00 0.00 67 1016.4
20260903150603 87 348 0.0 0.0 0.00 0.00 0.00 74 1016.4
20260903150007 87 269 0.0 0.0 0.00 0.00 0.00 73 1016.4
20260903145508 86 349 0.0 0.0 0.00 0.00 0.00 76 1016.4
20260903145102 85 351 0.0 0.0 0.00 0.00 0.00 76 1016.3
20260903144502 84 10 0.0 0.0 0.00 0.00 0.00 77 1016.3
20260903144009 83 8 0.0 0.0 0.00 0.00 0.00 76 1016.3
20260903143601 83 15 0.0 0.0 0.00 0.00 0.00 77 1016.3
20260903143002 82 348 0.0 0.9 0.00 0.00 0.00 82 1016.3
20260903142508 81 353 0.0 0.9 0.00 0.00 0.00 79 1016.3
20260903142104 81 43 0.0 0.0 0.00 0.00 0.00 84 1016.3
20260903141502 80 197 0.0 0.0 0.00 0.00 0.00 87 1016.3
20260903141010 79 197 0.0 0.0 0.00 0.00 0.00 88 1016.4
20260903140603 79 197 0.0 0.0 0.00 0.00 0.00 90 1016.4
20260903140003 78 195 0.0 0.0 0.00 0.00 0.00 91 1016.4
20260903135509 77 198 0.0 0.0 0.00 0.00 0.00 93 1016.4
20260903135103 77 198 0.0 0.0 0.00 0.00 0.00 94 1016.3
20260903134502 76 198 0.0 0.0 0.00 0.00 0.00 94 1016.4
20260903134008 76 198 0.0 0.0 0.00 0.00 0.00 96 1016.3
20260903133604 75 198 0.0 0.0 0.00 0.00 0.00 97 1016.4
20260903133002 75 198 0.0 0.0 0.00 0.00 0.00 97 1016.3
20260903132512 74 198 0.0 0.0 0.00 0.00 0.00 97 1016.3
20260903132101 74 198 0.0 0.0 0.00 0.00 0.00 97 1016.3
20260903131502 73 198 0.0 0.0 0.00 0.00 0.00 98 1016.4
20260903131009 73 198 0.0 0.0 0.00 0.00 0.00 98 1016.4
20260903130603 73 198 0.0 0.0 0.00 0.00 0.00 98 1016.5
20260903130002 72 198 0.0 0.0 0.00 0.00 0.00 97 1016.5
20260903125509 72 198 0.0 0.0 0.00 0.00 0.00 97 1016.5
20260903125102 71 198 0.0 0.0 0.00 0.00 0.00 97 1016.5
20260903124503 71 198 0.0 0.0 0.00 0.00 0.00 97 1016.5
20260903124008 71 198 0.0 0.0 0.00 0.00 0.00 97 1016.5
20260903123601 71 198 0.0 0.0 0.00 0.00 0.00 97 1016.5
20260903123007 71 198 0.0 0.0 0.00 0.00 0.00 97 1016.5
20260903122508 70 198 0.0 0.0 0.00 0.00 0.00 97 1016.5
20260903122103 70 198 0.0 0.0 0.00 0.00 0.00 97 1016.4
20260903121502 70 198 0.0 0.0 0.00 0.00 0.00 97 1016.4
20260903121012 70 198 0.0 0.0 0.00 0.00 0.00 97 1016.4
20260903120605 70 198 0.0 0.0 0.00 0.00 0.00 96 1016.4
20260903120002 70 198 0.0 0.0 0.00 0.00 0.00 96 1016.4
20260903115508 70 198 0.0 0.0 0.00 0.00 0.00 96 1016.4
20260903115103 70 198 0.0 0.0 0.00 0.00 0.00 96 1016.4
20260903114502 69 198 0.0 0.0 0.00 0.00 0.00 96 1016.3
20260903114009 69 198 0.0 0.0 0.00 0.00 0.00 96 1016.1
20260903113602 70 198 0.0 0.0 0.00 0.00 0.00 96 1016.1
20260903113006 69 198 0.0 0.0 0.00 0.00 0.00 96 1016.1
20260903112508 69 198 0.0 0.0 0.00 0.00 0.00 96 1016.0
20260903112102 69 198 0.0 0.0 0.00 0.00 0.00 96 1016.1
20260903111506 69 198 0.0 0.0 0.00 0.00 0.00 96 1016.1
20260903111008 70 198 0.0 0.0 0.00 0.00 0.00 96 1016.1
20260903110606 70 198 0.0 0.0 0.00 0.00 0.00 96 1016.0
20260903110005 70 198 0.0 0.0 0.00 0.00 0.00 96 1016.0
20260903105514 70 198 0.0 0.0 0.00 0.00 0.00 96 1016.0
20260903105103 70 198 0.0 0.0 0.00 0.00 0.00 96 1015.9
20260903104504 70 198 0.0 0.0 0.00 0.00 0.00 96 1015.8
20260903104010 70 198 0.0 0.0 0.00 0.00 0.00 96 1015.8
20260903103603 70 198 0.0 0.0 0.00 0.00 0.00 96 1015.8
20260903103005 70 198 0.0 0.0 0.00 0.00 0.00 96 1015.7
20260903102510 70 198 0.0 0.0 0.00 0.00 0.00 96 1015.7
20260903102103 70 198 0.0 0.0 0.00 0.00 0.00 96 1015.7
20260903101503 70 198 0.0 0.0 0.00 0.00 0.00 96 1015.7
20260903101009 70 198 0.0 0.0 0.00 0.00 0.00 96 1015.6
20260903100604 70 198 0.0 0.0 0.00 0.00 0.00 95 1015.5
20260903100007 70 198 0.0 0.0 0.00 0.00 0.00 96 1015.4
20260903095510 70 198 0.0 0.0 0.00 0.00 0.00 96 1015.4
20260903095103 70 198 0.0 0.0 0.00 0.00 0.00 95 1015.4
20260903094503 70 198 0.0 0.0 0.00 0.00 0.00 95 1015.4
20260903094010 70 198 0.0 0.0 0.00 0.00 0.00 95 1015.4
20260903093605 70 198 0.0 0.0 0.00 0.00 0.00 95 1015.4
20260903093012 70 198 0.0 0.0 0.00 0.00 0.00 95 1015.4
20260903092510 70 198 0.0 0.0 0.00 0.00 0.00 95 1015.4
20260903092103 70 198 0.0 0.0 0.00 0.00 0.00 95 1015.4
20260903091503 70 198 0.0 0.0 0.00 0.00 0.00 95 1015.4
20260903091009 70 198 0.0 0.0 0.00 0.00 0.00 95 1015.3
20260903090604 70 198 0.0 0.0 0.00 0.00 0.00 95 1015.3
20260903090003 71 198 0.0 0.0 0.00 0.00 0.00 95 1015.4
20260903085510 71 198 0.0 0.0 0.00 0.00 0.00 95 1015.2
20260903085104 71 198 0.0 0.0 0.00 0.00 0.00 95 1015.2
20260903084507 71 198 0.0 0.0 0.00 0.00 0.00 95 1015.2
20260903084010 71 198 0.0 0.0 0.00 0.00 0.00 95 1015.1
20260903083604 71 198 0.0 0.0 0.00 0.00 0.00 95 1015.2
20260903083002 71 198 0.0 0.0 0.00 0.00 0.00 95 1015.0
20260903082509 71 198 0.0 0.0 0.00 0.00 0.00 95 1015.1
20260903082106 71 198 0.0 0.0 0.00 0.00 0.00 95 1015.0
20260903081504 71 198 0.0 0.0 0.00 0.00 0.00 95 1015.1
20260903081011 71 198 0.0 0.0 0.00 0.00 0.00 95 1015.0
20260903080604 71 198 0.0 0.0 0.00 0.00 0.00 95 1015.0
20260903080004 71 198 0.0 0.0 0.00 0.00 0.00 95 1015.0
20260903075510 71 198 0.0 0.0 0.00 0.00 0.00 95 1015.0
20260903075103 71 198 0.0 0.0 0.00 0.00 0.00 95 1015.0
20260903074508 71 198 0.0 0.0 0.00 0.00 0.00 95 1015.0
20260903074015 71 198 0.0 0.0 0.00 0.00 0.00 95 1015.0
20260903073604 71 198 0.0 0.0 0.00 0.00 0.00 95 1015.0
20260903073003 72 198 0.0 0.0 0.00 0.00 0.00 95 1014.9
20260903072509 72 198 0.0 0.0 0.00 0.00 0.00 95 1014.9
20260903072104 72 198 0.0 0.0 0.00 0.00 0.00 94 1015.0
20260903071509 72 198 0.0 0.0 0.00 0.00 0.00 94 1015.1
20260903071011 72 198 0.0 0.0 0.00 0.00 0.00 94 1015.1
20260903070604 72 198 0.0 0.0 0.00 0.00 0.00 94 1015.1
20260903070004 72 198 0.0 0.0 0.00 0.00 0.00 94 1015.1
20260903065511 72 198 0.0 0.0 0.00 0.00 0.00 94 1015.1
20260903065105 72 198 0.0 0.0 0.00 0.00 0.00 94 1015.1
20260903064505 72 198 0.0 0.0 0.00 0.00 0.00 94 1015.0
20260903064009 72 198 0.0 0.0 0.00 0.00 0.00 94 1014.9
20260903063603 72 198 0.0 0.0 0.00 0.00 0.00 94 1014.9
20260903063005 72 198 0.0 0.0 0.00 0.00 0.00 94 1015.0
20260903062512 72 198 0.0 0.0 0.00 0.00 0.00 94 1015.0
20260903062103 72 198 0.0 0.0 0.00 0.00 0.00 94 1015.0
20260903061504 72 198 0.0 0.0 0.00 0.00 0.00 94 1015.0
20260903061013 72 198 0.0 0.0 0.00 0.00 0.00 94 1015.0
20260903060603 73 198 0.0 0.0 0.00 0.00 0.00 94 1015.1
20260903060003 73 198 0.0 0.0 0.00 0.00 0.00 94 1015.0
20260903055510 73 198 0.0 0.0 0.00 0.00 0.00 94 1015.0
20260903055104 73 198 0.0 0.0 0.00 0.00 0.00 94 1015.0
20260903054508 73 198 0.0 0.0 0.00 0.00 0.00 94 1015.1
20260903054010 73 198 0.0 0.0 0.00 0.00 0.00 93 1015.1
20260903053604 73 198 0.0 0.0 0.00 0.00 0.00 93 1015.0
20260903053004 73 198 0.0 0.0 0.00 0.00 0.00 93 1015.0
20260903052511 73 198 0.0 0.0 0.00 0.00 0.00 94 1015.1
20260903052104 73 198 0.0 0.0 0.00 0.00 0.00 93 1015.1
20260903051503 73 198 0.0 0.0 0.00 0.00 0.00 93 1015.1
20260903051011 73 198 0.0 0.0 0.00 0.00 0.00 93 1015.1
20260903050606 73 198 0.0 0.0 0.00 0.00 0.00 93 1015.2
20260903050111 73 198 0.0 0.0 0.00 0.00 0.00 93 1015.1
20260903045510 74 198 0.0 0.0 0.00 0.00 0.00 93 1015.1
20260903045104 74 198 0.0 0.0 0.00 0.00 0.00 93 1015.1
20260903044503 74 198 0.0 0.0 0.00 0.00 0.00 93 1014.9
20260903044009 74 198 0.0 0.0 0.00 0.00 0.00 93 1014.9
20260903043603 74 198 0.0 0.0 0.00 0.00 0.00 93 1014.8
20260903043003 74 198 0.0 0.0 0.00 0.00 0.00 93 1014.9
20260903042511 74 198 0.0 0.0 0.00 0.00 0.00 93 1014.9
20260903042104 74 198 0.0 0.0 0.00 0.00 0.00 93 1015.0
20260903041505 74 198 0.0 0.0 0.00 0.00 0.00 92 1015.0
20260903041005 74 198 0.0 0.0 0.00 0.00 0.00 92 1015.1
20260903040605 74 198 0.0 0.0 0.00 0.00 0.00 92 1015.1
20260903040003 75 198 0.0 0.0 0.00 0.00 0.00 92 1015.0
20260903035510 75 198 0.0 0.0 0.00 0.00 0.00 92 1015.1
20260903035104 75 198 0.0 0.0 0.00 0.00 0.00 92 1015.1
20260903034503 75 198 0.0 0.0 0.00 0.00 0.00 92 1015.1
20260903034010 75 198 0.0 0.0 0.00 0.00 0.00 92 1015.2
20260903033603 75 198 0.0 0.0 0.00 0.00 0.00 91 1015.2
20260903033003 75 198 0.0 0.0 0.00 0.00 0.00 91 1015.2
20260903032509 75 198 0.0 0.0 0.00 0.00 0.00 91 1015.2
20260903032104 75 198 0.0 0.0 0.00 0.00 0.00 91 1015.3
20260903031513 76 198 0.0 0.0 0.00 0.00 0.00 91 1015.3
20260903031010 76 198 0.0 0.0 0.00 0.00 0.00 91 1015.4
20260903030605 76 198 0.0 0.0 0.00 0.00 0.00 91 1015.4
20260903030004 76 198 0.0 0.0 0.00 0.00 0.00 91 1015.4
20260903025509 76 198 0.0 0.0 0.00 0.00 0.00 90 1015.4
20260903025104 76 198 0.0 0.0 0.00 0.00 0.00 90 1015.5
20260903024504 76 198 0.0 0.0 0.00 0.00 0.00 90 1015.6
20260903024010 76 198 0.0 0.0 0.00 0.00 0.00 90 1015.7
20260903023606 76 198 0.0 0.0 0.00 0.00 0.00 90 1015.7
20260903023003 77 198 0.0 0.0 0.00 0.00 0.00 89 1015.7
20260903022511 77 198 0.0 0.0 0.00 0.00 0.00 89 1015.8
20260903022106 77 198 0.0 0.0 0.00 0.00 0.00 89 1015.9
20260903021506 77 198 0.0 0.0 0.00 0.00 0.00 88 1015.8
20260903021014 77 198 0.0 0.0 0.00 0.00 0.00 88 1015.9
20260903020605 77 198 0.0 0.0 0.00 0.00 0.00 87 1015.8
20260903020003 78 198 0.0 0.0 0.00 0.00 0.00 87 1015.8
20260903015509 78 198 0.0 0.0 0.00 0.00 0.00 87 1015.8
20260903015105 78 198 0.0 0.0 0.00 0.00 0.00 86 1015.9
20260903014503 78 198 0.0 0.0 0.00 0.00 0.00 86 1015.8
20260903014009 78 198 0.0 0.0 0.00 0.00 0.00 86 1015.8
20260903013603 78 198 0.0 0.0 0.00 0.00 0.00 86 1015.8
20260903013007 79 198 0.0 0.0 0.00 0.00 0.00 85 1015.8
20260903012511 79 198 0.0 0.0 0.00 0.00 0.00 85 1015.7
20260903012103 79 198 0.0 0.0 0.00 0.00 0.00 85 1015.7
20260903011503 79 198 0.0 0.0 0.00 0.00 0.00 84 1015.6
20260903011010 79 198 0.0 0.0 0.00 0.00 0.00 84 1015.5
20260903010603 80 198 0.0 0.0 0.00 0.00 0.00 83 1015.5
20260903010003 80 198 0.0 0.0 0.00 0.00 0.00 83 1015.4
20260903005509 80 198 0.0 0.0 0.00 0.00 0.00 82 1015.4
20260903005103 80 198 0.0 0.0 0.00 0.00 0.00 82 1015.4
20260903004512 81 198 0.0 0.0 0.00 0.00 0.00 81 1015.4
20260903004009 81 198 0.0 0.0 0.00 0.00 0.00 81 1015.3
20260903003603 81 198 0.0 0.0 0.00 0.00 0.00 80 1015.2
20260903003004 82 198 0.0 0.0 0.00 0.00 0.00 79 1015.1
20260903002509 82 198 0.0 0.0 0.00 0.00 0.00 79 1015.1
20260903002106 82 198 0.0 0.0 0.00 0.00 0.00 78 1015.1
20260903001506 83 198 0.0 0.0 0.00 0.00 0.00 78 1015.0
20260903001011 83 198 0.0 0.0 0.00 0.00 0.00 77 1015.0
20260903000604 83 198 0.0 0.0 0.00 0.00 0.00 76 1015.0
20260903000005 84 198 0.0 0.0 0.00 0.00 0.00 76 1015.0
20260902235512 84 198 0.0 0.0 0.00 0.00 0.00 75 1014.9
20260902235104 84 198 0.0 0.0 0.00 0.00 0.00 74 1014.9
20260902234505 85 198 0.0 0.0 0.00 0.00 0.00 73 1014.9
20260902234009 85 198 0.0 0.0 0.00 0.00 0.00 73 1014.9
20260902233603 85 198 0.0 0.0 0.00 0.00 0.00 73 1014.9
20260902233004 86 198 0.0 0.0 0.00 0.00 0.00 72 1014.9
20260902232513 86 198 0.0 0.0 0.00 0.00 0.00 71 1014.8
20260902232103 87 198 0.0 0.0 0.00 0.00 0.00 71 1014.8
20260902231508 87 198 0.0 0.0 0.00 0.00 0.00 69 1014.8
20260902231011 88 198 0.0 0.0 0.00 0.00 0.00 68 1014.8
20260902230603 88 198 0.0 0.0 0.00 0.00 0.00 68 1014.8
20260902230003 89 198 0.0 0.0 0.00 0.00 0.00 66 1014.7
20260902225509 89 198 0.0 0.0 0.00 0.00 0.00 66 1014.8
20260902225106 89 198 0.0 0.0 0.00 0.00 0.00 64 1014.7
20260902224503 90 198 0.0 0.0 0.00 0.00 0.00 64 1014.7
20260902224009 90 198 0.0 0.0 0.00 0.00 0.00 61 1014.6
20260902223603 90 198 0.0 0.0 0.00 0.00 0.00 62 1014.6
20260902223003 91 198 0.0 0.0 0.00 0.00 0.00 61 1014.6
20260902222511 91 198 0.0 0.0 0.00 0.00 0.00 61 1014.6
20260902222103 91 198 0.0 0.0 0.00 0.00 0.00 60 1014.6
20260902221503 92 194 0.0 0.0 0.00 0.00 0.00 59 1014.6
20260902221009 92 194 0.0 0.0 0.00 0.00 0.00 55 1014.6
20260902220605 92 194 0.0 0.0 0.00 0.00 0.00 59 1014.6
20260902220003 93 194 0.0 0.0 0.00 0.00 0.00 56 1014.7
20260902215515 93 194 0.0 0.0 0.00 0.00 0.00 53 1014.7
20260902215107 93 194 0.0 0.0 0.00 0.00 0.00 53 1014.7
20260902214503 94 194 0.0 0.0 0.00 0.00 0.00 53 1014.8
20260902214010 94 194 0.0 0.0 0.00 0.00 0.00 53 1014.7
20260902213605 95 194 0.0 0.0 0.00 0.00 0.00 52 1014.8
20260902213003 95 194 0.0 0.0 0.00 0.00 0.00 48 1014.8
20260902212509 96 197 0.0 0.0 0.00 0.00 0.00 50 1014.8
20260902212104 96 197 0.0 0.0 0.00 0.00 0.00 45 1014.8
20260902211504 96 197 0.0 0.9 0.00 0.00 0.00 45 1014.7
20260902211009 96 197 0.0 0.9 0.00 0.00 0.00 45 1014.8
20260902210604 97 176 0.0 0.9 0.00 0.00 0.00 47 1014.8
20260902210003 97 231 0.0 0.9 0.00 0.00 0.00 44 1014.8
20260902205508 97 216 0.0 0.9 0.00 0.00 0.00 52 1014.7
20260902205103 97 215 0.0 0.0 0.00 0.00 0.00 51 1014.7
20260902204503 97 215 0.0 0.0 0.00 0.00 0.00 47 1014.8
20260902204010 98 215 0.0 1.7 0.00 0.00 0.00 50 1014.8
20260902203604 98 216 0.0 1.7 0.00 0.00 0.00 48 1014.8
20260902203004 98 207 0.0 0.0 0.00 0.00 0.00 44 1014.9